Погода в Питерборо

Канада     44°18′53″N   78°19′37″W
темп.,
°C
ветер,
м/с
пор.,
м/с
влажн.,
%
обл.,
%
осадки,
мм/ч
давл.,
гПа
погр.,
м
8 мая, сб
сб823:00+2юз2287100 0.0 101312
02:00+2з228932 0.0 101213
05:000зсз229086 0.0 101212
08:00+4ссз237239 0.0 1013208
11:00+10с346246 0.1 10121351
14:00+12с245882 1.8 10121430
17:00+11з676455 1.4 10121265
20:00+7зсз5117215 2.1 1014420
9 мая, вс
вс923:00+4зсз5127388 0.0 1016317
02:00+2зсз4108361 0.0 1017197
05:000зсз38902 0.0 1017151
08:00+4зсз367135 0.0 1017248
11:00+10з335099 0.0 10151290
14:00+12з2245100 0.0 10121930
17:00+11ююз4354100 0.0 10111101
20:00+7ююз3469100 0.0 101185
10 мая, пн
пн1023:00+5з2269100 0.0 101120
02:00+4сз3772100 0.0 1010183
05:00+1сз38767 0.0 1011146
08:00+5сз58655 0.0 1013273
11:00+10зсз5660100 0.0 10121274
14:00+10з775861 0.1 10131560
17:00+11зсз81050100 0.0 10131826
20:00+7зсз612660 0.0 1015805
11 мая, вт
вт1123:00+3зсз513785 0.0 1016521
02:00+1зсз412925 0.0 1016353
05:00+1з411976 0.0 1016372
08:00+3з71277100 0.0 1017992
11:00+4з81379100 0.1 10171245
14:00+6зсз9137586 0.2 10171195
17:00+3зсз71394100 0.1 1018562
20:00+4сз6139677 0.3 1019445
12 мая, ср
ср1223:00+7сз613926 0.0 1020464
02:00+4сз512970 0.0 1023283
05:00+2сз411960 0.0 1025248
08:00+6сз49810 0.0 1027250
11:00+13ссз57540 0.0 10281067
14:00+16сз68381 0.0 10272101
17:00+16сз58505 0.0 10262294
20:00+10зсз512654 0.0 1028367